Regional Weather Roundup
Issued by NWS

Home | Current Version | Previous Version | Graphics & Text | Print | Product List | Glossary On
Versions: 1 2 3 4 5 6 7 8 9 10 11 12 13 14 15 16 17 18 19 20 21 22 23 24 25 26 27 28 29 30 31 32 33 34 35 36 37 38 39 40 41 42 43 44 45 46 47 48 49 50
000
ASUS43 KMPX 031810
RWRMN
WEATHER ROUNDUP FOR MINNESOTA
NATIONAL WEATHER SERVICE TWIN CITIES/CHANHASSEN MN
100 PM CDT THU SEP 03 2015


NOTE: "FAIR" INDICATES FEW OR NO CLOUDS BELOW 12,000 FEET WITH NO
SIGNIFICANT WEATHER AND/OR OBSTRUCTIONS TO VISIBILITY. N/A MEANS
CURRENT SKY AND/OR WEATHER CONDITIONS ARE NOT AVAILABLE.

MNZ060>063-068>070-031900-
   Twin Cities Metro

CITY           SKY/WX    TMP DP  RH WIND       PRES   REMARKS
TWIN CITIES    MOSUNNY   81  72  74 E13       29.90F
6HR MIN TEMP:  68; 6HR MAX TEMP:  82;

ST PAUL        MOSUNNY   80  72  76 SE12      29.91F
CRYSTAL        MOSUNNY   83  71  67 SE12      29.90S
BLAINE         PTSUNNY   81  73  78 E9        29.92S
LAKEVILLE      PTSUNNY   82  73  74 E9        29.90F
EDEN PRAIRIE   MOSUNNY   81  72  74 E10       29.89F
6HR MIN TEMP:  68; 6HR MAX TEMP:  81;

SOUTH ST PAUL  MOSUNNY   81  70  70 E8        29.91F
LAKE ELMO      CLOUDY    79  72  78 E7        29.93F
$$
MNZ001>005-007-008-013>017-022>024-027-028-031900-
   Northwest Minnesota

CITY           SKY/WX    TMP DP  RH WIND       PRES   REMARKS
BEMIDJI        SUNNY     80  67  65 SE14G21   29.89F
HALLOCK        SUNNY     88  72  58 SE23G31   29.73F HX  94
ROSEAU         SUNNY     82  72  69 SE15G23   29.82F
WARROAD        SUNNY     81  72  74 SE10G20   29.84F
THIEF RVR FALL SUNNY     84  72  65 SE15      29.80F
CROOKSTON      SUNNY     88  72  58 S18G29    29.77F HX  94
FOSSTON        SUNNY     84  66  54 SE13G20   29.84S
DETROIT LAKES  PTSUNNY   79  70  73 SE17G24   29.87S
MOORHEAD       SUNNY     86  72  62 SE20G26   29.79F HX  92
PARK RAPIDS    MOSUNNY   83  68  60 SE17      29.89F
MAHNOMEN       FAIR      83  71  65 SE14G21   29.84S
$$
MNZ006-009>011-018-025>026-031900-
   North Central Minnesota

CITY           SKY/WX    TMP DP  RH WIND       PRES   REMARKS
BAUDETTE       SUNNY     79  66  64 SE16      29.87F
FLAG ISLAND    SUNNY     72  64  78 S10       29.86F
INTL FALLS     SUNNY     79  63  57 SE12G20   29.92F
6HR MIN TEMP:  62; 6HR MAX TEMP:  79;

WASKISH        SUNNY     81  68  65 SE14      29.88F
BIG FORK       SUNNY     79  66  65 SE7       29.94S
LONGVILLE      SUNNY     79  66  65 SE8       29.92F
GRAND RAPIDS     N/A     75  63  64 SE12G21   29.95S
CRANE LAKE     SUNNY     77  61  57 S7G16     29.97S
ORR            SUNNY     81  61  50 SE7       29.93F
COOK           SUNNY     79  63  57 SE8       29.97S
WALKER         FAIR      78  67  70 SE10G16   29.91S
$$
MNZ012-019>021-037-031900-
   Northeast Minnesota

CITY           SKY/WX    TMP DP  RH WIND       PRES   REMARKS
DULUTH         FOG       62  61  96 E12       29.99F VSB 1/2
6HR MIN TEMP:  61; 6HR MAX TEMP:  64; 6HR PCP: TRACE;

ELY            SUNNY     77  59  53 SE9       29.99S
HIBBING        SUNNY     76  64  66 SE16      29.97S
EVELETH        SUNNY     73  63  68 SE10      29.99S
DULUTH HARBOR  CLOUDY    61  59  94 NE12      29.99F FOG
TWO HARBORS    MOSUNNY   72  64  78 E12       29.98F
SILVER BAY     SUNNY     72  61  68 NE7       29.99S
GRAND MARAIS     N/A     64  54  69 CALM      30.01S
G MARAIS ARPRT SUNNY     73  50  43 E6        30.05S
$$
MNZ029>031-032-039>041-046>048-054>057-064-031900-
   West Central Minnesota

CITY           SKY/WX    TMP DP  RH WIND       PRES   REMARKS
FERGUS FALLS   SUNNY     82  72  69 SE16G23   29.83S
WHEATON        SUNNY     79  72  78 SE13      29.83F
MORRIS         SUNNY     84  73  70 SE14      29.83F HX  91
ALEXANDRIA     MOSUNNY   80  72  76 SE14G22   29.89F
ELBOW LAKE     FAIR      81  72  75 SE14      29.85S HAZE
WADENA         PTSUNNY   79  70  73 SE15G22   29.89S
GLENWOOD       SUNNY     79  72  78 E13G20    29.89F
APPLETON       SUNNY     84  72  65 SE12      29.83F
BENSON         SUNNY     84  72  65 SE14      29.85S
ORTONVILLE     SUNNY     81  72  74 SE8       29.83F
MADISON        SUNNY     84  72  65 SE13      29.83F
WILLMAR        FAIR      82  75  78 SE14      29.88S
$$
MNZ033>034-036-042>043-049>051-058-059-031900-
   Central Minnesota

CITY           SKY/WX    TMP DP  RH WIND       PRES   REMARKS
ST CLOUD       MOSUNNY   82  72  71 SE13      29.90F
6HR MIN TEMP:  65; 6HR MAX TEMP:  82;

SAUK CENTRE    CLOUDY    78  72  82 E10G16    29.90S
PAYNESVILLE    CLOUDY    78  72  81 NE12      29.90F
AITKIN         SUNNY     81  66  61 E6        29.93F
PINE RIVER     SUNNY     77  68  73 SE13G18   29.95F
BRAINERD       SUNNY     78  67  68 SE6       29.93S
STAPLES        CLOUDY    79  68  69 SE13G18   29.90S
LONG PRAIRIE   CLOUDY    79  70  73 SE12      29.91S
LITTLE FALLS   CLOUDY    79  68  69 E10       29.91S
LITCHFIELD     SUNNY     82  75  78 E14       29.89F
BUFFALO        MOSUNNY   82  71  68 E8        29.91S
MAPLE LAKE     MOSUNNY   84  75  75 E8        29.91S HX  91
$$
MNZ037-044-045-052-053-031900-
   East Central Minnesota

CITY           SKY/WX    TMP DP  RH WIND       PRES   REMARKS
PRINCETON      MOSUNNY   81  72  74 E9        29.92F
MORA           SUNNY     77  64  65 SE8       29.95S
CAMBRIDGE      PTSUNNY   84  70  61 E5        29.91S
RUSH CITY      SUNNY     80  67  65 SE8       29.94S
MOOSE LAKE     SUNNY     70  63  78 NE8       29.95F
HINCKLEY       MOCLDY    77  68  73 E9        29.95S
CLOQUET        CLOUDY    63  61  94 E9        29.99S FOG
MCGREGOR       SUNNY     77  64  65 SE10      29.96S
$$
MNZ071>073-080-081-089-090-097-098-031900-
   Southwest Minnesota

CITY           SKY/WX    TMP DP  RH WIND       PRES   REMARKS
MONTEVIDEO     SUNNY     88  73  62 S10       29.86S HX  96
GRANITE FALLS  SUNNY     84  73  68 E9        29.86S HX  90
CANBY          SUNNY     85  73  66 SE10      29.85S HX  91
MARSHALL       SUNNY     84  70  61 SE14      29.86S
REDWOOD FALLS  SUNNY     85  73  67 SE10      29.85F HX  91
OLIVIA         SUNNY     81  70  69 E9G17     29.86S
PIPESTONE      SUNNY     84  72  65 SE13      29.86F
WINDOM         SUNNY     86  72  62 SE9G16    29.87F HX  92
WORTHINGTON    SUNNY     82  72  69 SE12      29.87F
JACKSON        SUNNY     84  72  65 SE10      29.89F
TRACY          SUNNY     86  73  66 SE12G17   29.86F HX  93
SLAYTON        SUNNY     84  73  67 SE8       29.88F HX  90
$$
MNZ065>067-074>077-082>085-091>093-031900-
   South Central Minnesota

CITY           SKY/WX    TMP DP  RH WIND       PRES   REMARKS
MANKATO        SUNNY     84  73  70 SE13      29.88F HX  91
NEW ULM        SUNNY     84  72  65 SE12      29.87S
ST JAMES       SUNNY     86  75  70 E10       29.88S HX  95
FAIRMONT       SUNNY     84  70  61 SE9       29.88F
GLENCOE        MOSUNNY   85  75  72 E9        29.89S HX  94
FARIBAULT      MOSUNNY   84  75  74 E8        29.90F HX  92
OWATONNA       SUNNY     84  73  70 E9        29.90F HX  91
WASECA         SUNNY     82  72  69 E6        29.91S
ALBERT LEA     SUNNY     84  73  70 SE6       29.90F HX  91
$$
MNZ078>079-086>088-094>096-031900-
   Southeast Minnesota

CITY           SKY/WX    TMP DP  RH WIND       PRES   REMARKS
ROCHESTER      SUNNY     85  74  69 E8        29.93F HX  92
6HR MIN TEMP:  66; 6HR MAX TEMP:  85;

RED WING       CLOUDY    79  70  73 E9        29.91S
STANTON        MOSUNNY   83  72  70 SE7       29.89F
DODGE CENTER   MOSUNNY   82  73  74 SE7       29.92F
WINONA         PTSUNNY   82  70  65 SE6       29.92F
AUSTIN         SUNNY     84  73  70 SE5       29.91F HX  91
PRESTON        MOSUNNY   83  72  67 SE6       29.94S
$$
ABBREVIATIONS USED IN REMARKS
   TC - TEMPERATURES IN CELSIUS
  WCI - WIND CHILL INDEX
   HX - HEAT INDEX
  VSB - VISIBILITY
$$



USA.gov is the U.S. government's official web portal to all federal, state and local government web resources and services.